Flag for United Arab Emirates Weather past 2 weeks in Dubai, Dubai, United Arab Emirates

Now
91 °F

Clear.


Feels Like: 105 °F
Forecast: 89 / 99 °F
Wind: 12 mph from Northwest

Location: Dubai International Airport

Current Time: Oct 1, 2014 at 8:41:55 PM

Latest Report: Oct 1, 2014 at 8:00 PM


Visibility: 10 mi

Pressure: 29.83 "Hg

Humidity: 63%

Dew point: 77 °F

Location of DubaiLocation

Historic Weather in Dubai — Graph

°F

Dubai temperature yesterday

Maximum temperature yesterday: 99 °F (at 12:00 PM)
Minimum temperature yesterday: 86 °F (at 6:00 AM)
Average temperature yesterday: 91 °F

Past Weeks' High & Low Weather Summary

 TemperatureHumidityPressure
High100 °F (Sep 17, 12:00 PM)89% (Sep 20, 6:00 AM)29.92 "Hg (Sep 20, 6:00 AM)
Low84 °F (Sep 20, 6:00 AM)27% (Sep 17, 12:00 PM)29.56 "Hg (Sep 17, 3:00 AM)
Average92 °F59%29.73 "Hg
* Reported Sep 16 7:00 PM — Oct 1 7:00 PM, Dubai, Weather by CustomWeather, © 2014

Note: Actual official high and low records may vary slightly from our data, if they occured in-between our weather recording intervals... More about our weather records

Advertising

Dubai weather history for previous 24 hours

 ConditionsComfort  
Time TempWeatherWind HumidityBarometerVisibility
7:00 PM
Oct 1
93 °FPassing clouds.13 mph59%29.80 "HgN/A
6:00 PM93 °FPassing clouds.14 mph56%29.80 "HgN/A
5:00 PM93 °FPassing clouds.13 mph63%29.80 "HgN/A
4:00 PM95 °FSunny.15 mph50%29.80 "Hg10 mi
3:00 PM95 °FPassing clouds.14 mph50%29.80 "HgN/A
2:00 PM97 °FSunny.12 mph42%29.80 "Hg10 mi
1:00 PM97 °FPassing clouds.12 mph44%29.83 "HgN/A
12:00 PM97 °FPassing clouds.10 mph42%29.86 "HgN/A
11:00 AM99 °FPassing clouds.10 mph29%29.86 "HgN/A
10:00 AM93 °FSunny.3 mph59%29.89 "Hg10 mi
9:00 AM91 °FClear.5 mph67%29.86 "Hg5 mi
8:00 AM90 °FClear.6 mph71%29.86 "Hg4 mi
7:00 AM86 °FClear.5 mph79%29.83 "Hg4 mi
6:00 AM86 °FClear.5 mph79%29.83 "Hg5 mi
5:00 AM88 °FPassing clouds.5 mph75%29.80 "Hg5 mi
4:00 AM90 °FPassing clouds.5 mph75%29.80 "HgN/A
3:00 AM90 °FPassing clouds.6 mph71%29.80 "HgN/A
2:00 AM90 °FPassing clouds.7 mph71%29.80 "HgN/A
1:00 AM90 °FPassing clouds.6 mph71%29.80 "HgN/A
12:00 AM90 °FPassing clouds.6 mph71%29.80 "HgN/A
11:00 PM
Sep 30
91 °FPassing clouds.6 mph67%29.83 "HgN/A
10:00 PM90 °FPassing clouds.8 mph71%29.83 "HgN/A
9:00 PM91 °FPassing clouds.9 mph63%29.83 "HgN/A
8:00 PM91 °FClear.10 mph67%29.83 "Hg10 mi
Weather by CustomWeather, © 2014

See weather overviewHow to use our weather pages